Flag for Canada Weather past 2 weeks in Mount Pearl, Newfoundland and Labrador, Canada

Now
18 °F

Scattered clouds.


Feels Like: -1 °F
Forecast: 9 / 16 °F
Wind: 26 mph from Northwest

Location: St. John's

Current Time: Feb 28, 2015 at 1:18:08 PM

Latest Report: Feb 28, 2015 at 12:30 PM


Visibility: 15 mi

Pressure: 30.30 "Hg

Humidity: 53%

Dew point: 3 °F

Location of Mount PearlLocation

Historic Weather in Mount Pearl — Graph

°F

Mount Pearl temperature yesterday

Maximum temperature yesterday: 25 °F (at 1:30 PM)
Minimum temperature yesterday: 16 °F (at 11:30 PM)
Average temperature yesterday: 22 °F

Past Weeks' High & Low Weather Summary

 TemperatureHumidityPressure
High45 °F (Feb 20, 8:30 AM)100% (Feb 13, 2:30 PM)30.55 "Hg (Feb 13, 2:30 PM)
Low9 °F (Feb 25, 12:30 AM)52% (Feb 28, 9:30 AM)28.57 "Hg (Feb 13, 9:30 PM)
Average25 °F84%29.74 "Hg
* Reported Feb 13 11:30 AM — Feb 28 11:30 AM, Mount Pearl, Weather by CustomWeather, © 2015

Note: Actual official high and low records may vary slightly from our data, if they occured in-between our weather recording intervals... More about our weather records

Advertising

Mount Pearl weather history for previous 24 hours

 ConditionsComfort  
Time TempWeatherWind HumidityBarometerVisibility
11:30 AM
Sat, Feb 28
14 °FScattered clouds.28 mph57%30.31 "Hg15 mi
10:30 AM14 °FScattered clouds.26 mph52%30.30 "Hg15 mi
9:30 AM14 °FScattered clouds.26 mph52%30.28 "Hg15 mi
8:30 AM12 °FScattered clouds.23 mph57%30.27 "Hg15 mi
7:30 AM10 °FScattered clouds.15 mph61%30.24 "Hg15 mi
6:30 AM10 °FPassing clouds.18 mph61%30.22 "Hg15 mi
5:30 AM10 °FPassing clouds.18 mph56%30.21 "Hg15 mi
4:30 AM10 °FPassing clouds.15 mph56%30.19 "Hg15 mi
3:30 AM10 °FPassing clouds.25 mph61%30.15 "Hg15 mi
2:30 AM12 °FClear.21 mph62%30.15 "Hg15 mi
1:30 AM12 °FClear.24 mph67%30.11 "Hg15 mi
12:30 AM14 °FPassing clouds.28 mph73%30.10 "Hg15 mi
11:30 PM
Fri, Feb 27
16 °FPassing clouds.26 mph73%30.06 "Hg15 mi
10:30 PM19 °FSnow flurries. Overcast.25 mph86%30.03 "Hg2 mi
9:30 PM19 °FPassing clouds.25 mph79%30.00 "Hg15 mi
8:30 PM19 °FClear.21 mph79%29.99 "Hg15 mi
7:30 PM21 °FPassing clouds.18 mph80%29.97 "Hg15 mi
6:30 PM21 °FMostly cloudy.17 mph74%29.95 "Hg15 mi
5:30 PM23 °FPartly cloudy.16 mph68%29.92 "Hg15 mi
4:30 PM25 °FPartly sunny.15 mph69%29.89 "Hg15 mi
4:25 PM25 °FPartly sunny.13 mph74%29.89 "Hg15 mi
3:30 PM25 °FLight snow. Partly sunny.13 mph74%29.89 "Hg15 mi
2:30 PM25 °FLight snow. Partly sunny.18 mph69%29.85 "Hg15 mi
1:30 PM25 °FLight snow. Broken clouds.16 mph80%29.84 "Hg15 mi
Weather by CustomWeather, © 2015

See weather overviewHow to use our weather pages